When you browse on this site, cookies collect data to enhance your experience and personalize the content and advertising you see.
Visit our Privacy Policy to learn more. By continuing to use the site, you agree to this use of cookies and data.
  • en France
  • Liste des pays
  • À 7 jours
  • Température de l'eau
  • Carte météo
  • Widgets météo
  • user-avatar
    Se connecter

    Météo par heure à Biatris

    Ce jour, 29 Mai, Vendredi

    Heure Température Précipitation Vent Pression Humidité
    00:00 +13°C° 0 mm 2 m/s 654 mmHg 86%
    01:00 +13°C° 0 mm 2 m/s 654 mmHg 91%
    02:00 +13°C° 0 mm 2 m/s 654 mmHg 95%
    03:00 +13°C° 0 mm 2 m/s 654 mmHg 96%
    04:00 +12°C° 0 mm 2 m/s 654 mmHg 96%
    05:00 +12°C° 0 mm 2 m/s 653 mmHg 96%
    06:00 +14°C° 0 mm 2 m/s 654 mmHg 91%
    07:00 +15°C° 0 mm 2 m/s 655 mmHg 86%
    08:00 +17°C° 0 mm 2 m/s 656 mmHg 78%
    09:00 +20°C° 0 mm 2 m/s 657 mmHg 61%
    10:00 +25°C° 0 mm 1 m/s 657 mmHg 45%
    11:00 +28°C° 0 mm 1 m/s 658 mmHg 28%
    12:00 +29°C° 0 mm 1 m/s 657 mmHg 26%
    13:00 +29°C° 0 mm 1 m/s 657 mmHg 23%
    14:00 +29°C° 0 mm 1 m/s 656 mmHg 23%
    15:00 +27°C° 0 mm 1 m/s 656 mmHg 26%
    16:00 +26°C° 0 mm 1 m/s 655 mmHg 29%
    17:00 +22°C° 0 mm 0 m/s 654 mmHg 31%
    18:00 +20°C° 0 mm 0 m/s 654 mmHg 35%
    19:00 +20°C° 0 mm 1 m/s 654 mmHg 39%
    20:00 +18°C° 0 mm 1 m/s 654 mmHg 43%
    21:00 +16°C° 0 mm 1 m/s 654 mmHg 46%
    22:00 +15°C° 0 mm 1 m/s 654 mmHg 50%
    23:00 +14°C° 0 mm 1 m/s 654 mmHg 53%

    Demain, 30 Mai, Samedi

    Heure Température Précipitation Vent Pression Humidité
    00:00 +14°C° 0 mm 1 m/s 654 mmHg 56%
    01:00 +13°C° 0 mm 1 m/s 654 mmHg 59%
    02:00 +13°C° 0 mm 1 m/s 654 mmHg 62%
    03:00 +13°C° 0 mm 1 m/s 654 mmHg 66%
    04:00 +13°C° 0 mm 1 m/s 654 mmHg 70%
    05:00 +12°C° 0 mm 1 m/s 654 mmHg 74%
    06:00 +14°C° 0 mm 1 m/s 655 mmHg 69%
    07:00 +16°C° 0 mm 1 m/s 656 mmHg 63%
    08:00 +19°C° 0 mm 1 m/s 656 mmHg 58%
    09:00 +21°C° 0 mm 2 m/s 657 mmHg 47%
    10:00 +25°C° 0 mm 2 m/s 658 mmHg 36%
    11:00 +27°C° 0 mm 2 m/s 658 mmHg 25%
    12:00 +28°C° 0 mm 2 m/s 658 mmHg 23%
    13:00 +29°C° 0 mm 2 m/s 658 mmHg 22%
    14:00 +29°C° 0 mm 2 m/s 657 mmHg 20%
    15:00 +28°C° 0 mm 2 m/s 657 mmHg 22%
    16:00 +27°C° 0 mm 2 m/s 657 mmHg 25%
    17:00 +25°C° 0 mm 2 m/s 657 mmHg 27%
    18:00 +22°C° 0 mm 3 m/s 656 mmHg 32%
    19:00 +20°C° 0 mm 3 m/s 656 mmHg 36%
    20:00 +17°C° 0 mm 3 m/s 656 mmHg 41%
    21:00 +17°C° 0 mm 3 m/s 656 mmHg 47%
    22:00 +16°C° 0 mm 3 m/s 656 mmHg 53%
    23:00 +16°C° 0 mm 3 m/s 657 mmHg 60%

    Après-demain, 31 Mai, Dimanche

    Heure Température Précipitation Vent Pression Humidité
    00:00 +14°C° 0 mm 3 m/s 656 mmHg 68%
    01:00 +14°C° 0 mm 2 m/s 656 mmHg 77%
    02:00 +13°C° 0 mm 2 m/s 656 mmHg 85%
    03:00 +12°C° 0 mm 2 m/s 656 mmHg 88%
    04:00 +12°C° 0 mm 2 m/s 656 mmHg 90%
    05:00 +12°C° 0 mm 2 m/s 656 mmHg 92%
    06:00 +14°C° 0 mm 2 m/s 656 mmHg 83%
    07:00 +15°C° 0 mm 2 m/s 657 mmHg 75%
    08:00 +17°C° 0 mm 3 m/s 658 mmHg 66%
    09:00 +20°C° 0 mm 3 m/s 659 mmHg 53%
    10:00 +22°C° 0 mm 3 m/s 659 mmHg 40%
    11:00 +26°C° 0 mm 3 m/s 660 mmHg 27%
    12:00 +27°C° 0 mm 3 m/s 659 mmHg 25%
    13:00 +27°C° 0 mm 4 m/s 659 mmHg 23%
    14:00 +28°C° 0 mm 4 m/s 658 mmHg 21%
    15:00 +26°C° 0 mm 4 m/s 658 mmHg 25%
    16:00 +25°C° 0 mm 4 m/s 658 mmHg 29%
    17:00 +24°C° 0 mm 3 m/s 657 mmHg 33%
    18:00 +20°C° 0 mm 3 m/s 657 mmHg 42%
    19:00 +18°C° 0 mm 3 m/s 657 mmHg 51%
    20:00 +16°C° 0 mm 3 m/s 657 mmHg 60%
    21:00 +14°C° 0 mm 3 m/s 657 mmHg 67%
    22:00 +14°C° 0 mm 2 m/s 657 mmHg 75%
    23:00 +13°C° 0 mm 2 m/s 657 mmHg 82%

    1 Juin, Lundi

    Heure Température Précipitation Vent Pression Humidité
    00:00 +12°C° 0 mm 2 m/s 657 mmHg 85%
    01:00 +12°C° 0 mm 2 m/s 656 mmHg 87%
    02:00 +10°C° 0 mm 2 m/s 656 mmHg 90%
    03:00 +10°C° 0 mm 2 m/s 656 mmHg 91%
    04:00 +9°C° 0 mm 2 m/s 656 mmHg 92%
    05:00 +10°C° 0 mm 1 m/s 656 mmHg 92%
    06:00 +12°C° 0 mm 2 m/s 657 mmHg 83%
    07:00 +13°C° 0 mm 2 m/s 657 mmHg 74%
    08:00 +15°C° 0 mm 2 m/s 658 mmHg 65%
    09:00 +18°C° 0 mm 2 m/s 659 mmHg 52%
    10:00 +21°C° 0 mm 2 m/s 659 mmHg 38%
    11:00 +25°C° 0 mm 3 m/s 660 mmHg 25%
    12:00 +26°C° 0 mm 3 m/s 659 mmHg 23%
    13:00 +27°C° 0 mm 3 m/s 659 mmHg 20%
    14:00 +28°C° 0 mm 3 m/s 658 mmHg 18%
    15:00 +26°C° 0 mm 3 m/s 658 mmHg 22%
    16:00 +25°C° 0 mm 3 m/s 657 mmHg 25%
    17:00 +22°C° 0 mm 3 m/s 657 mmHg 28%
    18:00 +20°C° 0 mm 3 m/s 657 mmHg 35%
    19:00 +17°C° 0 mm 3 m/s 656 mmHg 42%
    20:00 +15°C° 0 mm 2 m/s 656 mmHg 49%
    21:00 +14°C° 0 mm 2 m/s 656 mmHg 54%
    22:00 +13°C° 0 mm 2 m/s 656 mmHg 59%
    23:00 +12°C° 0 mm 2 m/s 656 mmHg 63%

    2 Juin, Mardi

    Heure Température Précipitation Vent Pression Humidité
    00:00 +12°C° 0 mm 2 m/s 656 mmHg 69%
    01:00 +10°C° 0 mm 2 m/s 656 mmHg 75%
    02:00 +10°C° 0 mm 1 m/s 655 mmHg 80%
    03:00 +10°C° 0 mm 1 m/s 655 mmHg 83%
    04:00 +9°C° 0 mm 1 m/s 655 mmHg 86%
    05:00 +9°C° 0 mm 1 m/s 655 mmHg 89%
    06:00 +11°C° 0 mm 1 m/s 656 mmHg 81%
    07:00 +13°C° 0 mm 1 m/s 656 mmHg 72%
    08:00 +15°C° 0 mm 1 m/s 657 mmHg 64%
    09:00 +19°C° 0 mm 1 m/s 658 mmHg 52%
    10:00 +22°C° 0 mm 1 m/s 658 mmHg 40%
    11:00 +25°C° 0 mm 2 m/s 659 mmHg 29%
    12:00 +26°C° 0 mm 2 m/s 658 mmHg 24%
    13:00 +27°C° 0 mm 2 m/s 658 mmHg 19%
    14:00 +28°C° 0 mm 2 m/s 657 mmHg 15%
    15:00 +26°C° 0 mm 3 m/s 657 mmHg 17%
    16:00 +25°C° 0 mm 3 m/s 656 mmHg 19%
    17:00 +22°C° 0 mm 3 m/s 656 mmHg 21%
    18:00 +20°C° 0 mm 3 m/s 655 mmHg 29%
    19:00 +17°C° 0 mm 3 m/s 655 mmHg 37%
    20:00 +14°C° 0 mm 3 m/s 655 mmHg 44%
    21:00 +13°C° 0 mm 3 m/s 655 mmHg 49%
    22:00 +12°C° 0 mm 3 m/s 655 mmHg 54%
    23:00 +12°C° 0 mm 2 m/s 655 mmHg 59%

    3 Juin, Mercredi

    Heure Température Précipitation Vent Pression Humidité
    00:00 +10°C° 0 mm 2 m/s 654 mmHg 64%
    01:00 +10°C° 0 mm 2 m/s 654 mmHg 68%
    02:00 +10°C° 0 mm 1 m/s 654 mmHg 73%
    03:00 +10°C° 0 mm 1 m/s 654 mmHg 77%
    04:00 +9°C° 0 mm 1 m/s 654 mmHg 81%
    05:00 +9°C° 0 mm 1 m/s 654 mmHg 85%
    06:00 +11°C° 0 mm 1 m/s 655 mmHg 77%
    07:00 +13°C° 0 mm 1 m/s 655 mmHg 69%
    08:00 +15°C° 0 mm 1 m/s 656 mmHg 61%
    09:00 +19°C° 0 mm 1 m/s 657 mmHg 49%
    10:00 +23°C° 0 mm 1 m/s 658 mmHg 37%
    11:00 +25°C° 0 mm 0 m/s 658 mmHg 25%
    12:00 +26°C° 0 mm 0 m/s 658 mmHg 23%
    13:00 +26°C° 0 mm 0 m/s 657 mmHg 20%
    14:00 +27°C° 0 mm 0 m/s 657 mmHg 17%
    15:00 +25°C° 0 mm 0 m/s 656 mmHg 19%
    16:00 +23°C° 0 mm 0 m/s 656 mmHg 22%
    17:00 +23°C° 0 mm 1 m/s 655 mmHg 24%
    18:00 +21°C° 0 mm 1 m/s 655 mmHg 29%
    19:00 +17°C° 0 mm 2 m/s 655 mmHg 33%
    20:00 +15°C° 0 mm 2 m/s 655 mmHg 38%
    21:00 +14°C° 0 mm 2 m/s 655 mmHg 42%
    22:00 +14°C° 0 mm 2 m/s 655 mmHg 46%
    23:00 +13°C° 0 mm 2 m/s 655 mmHg 50%
    Voir plus